www.pogodaiklimat.ru

Погода и климат >> Архив погоды >> Россия >> Башкирия >> Зилаир


ПОГОДА в Зилаире

  • Прогноз погоды в Зилаире
  • Монитор погоды в Зилаире
  • Климат города

АРХИВ ПОГОДЫ в Зилаире

Время (UTC), дата Ветер
(напр.,м/с)
 
Видим.   Явления Облачность Т
(С)
Тd
(С)
f
(%)
Тe
(С)
Тes
(С)
Комфортность P
(гПа)
Po
(гПа)
Тmin
(С)
Tmax
(С)
R
(мм)
R24
(мм)
S
(см)
18 12.02 С 1 10 км 3/3 600 м
[Sc]
-16.1 -18.0 85 -19 -19 1025.1 957.0
21 12.02 С 1 4000 м слабый снег 10/0
[As op]
-15.4 -17.8 82 -18 -18 1025.2 957.2
00 13.02 С 1 10 км {снег} 10/10 600 м
[Sc]
-15.8 -18.0 83 -18 -18 1025.4 957.3
03 13.02 С 1 10 км 4/4 600 м
[Sc]
-17.5 -20.0 81 -20 -20 1026.2 957.6 -17.5 0.2 25
06 13.02 С 1 10 км ясно -14.8 -18.4 74 -17 -14 1025.7 957.9 -18.7
09 13.02 В 2 20 км ясно -10.5 -18.1 54 -15 -11 1025.0 958.3
12 13.02 СЗ 1 20 км ясно -9.0 -17.6 50 -11 -10 1024.6 958.3
15 13.02 ЮЗ 1 10 км ясно -14.2 -18.7 69 -17 -17 1026.9 959.1 -8.6
18 13.02 С 1 10 км ясно -19.1 -21.3 83 -22 -22 1028.9 959.7
21 13.02 С 1 10 км ясно -22.0 -24.8 78 -25 -25 1030.1 960.1
00 14.02 С 1 10 км ясно -23.2 -26.4 75 -27 -27 1031.2 960.8
03 14.02 С 2 10 км ясно -24.2 -27.5 74 -31 -31 опасность
обморожения
1032.4 961.6 -24.5 25
06 14.02 штиль 0 20 км ясно -16.8 -20.0 76 -17 -14 1030.6 961.9 -25.2
09 14.02 З 1 20 км ясно -6.1 -15.8 46 -8 -3 1027.2 961.4
12 14.02 СЗ 2 20 км ясно -6.0 -16.1 45 -10 -9 1028.2 962.4
15 14.02 З 1 10 км ясно -11.9 -17.2 65 -14 -14 1031.3 963.8 -3.8
18 14.02 С 1 10 км 4/0
[Ac lent]
-17.1 -19.4 82 -20 -20 1033.6 964.6
21 14.02 СВ 2 10 км ясно -20.1 -22.5 81 -26 -26 1034.9 965.1
00 15.02 С 2 10 км ясно -22.0 -24.9 77 -28 -28 1036.5 966.0
03 15.02 СВ 1 10 км 5/0
[Ci fib]
-21.5 -24.5 77 -25 -25 1037.6 967.2 -22.3 25
06 15.02 С 1 20 км ясно -14.8 -18.2 75 -17 -14 1037.0 968.4
09 15.02 СЗ 3 20 км ясно -3.2 -11.2 54 -8 -5 1034.4 968.8
12 15.02 С 2 20 км ясно -4.8 -10.8 63 -9 -8 1036.0 970.0
15 15.02 С 1 10 км ясно -10.2 -13.0 80 -12 -12 1039.0 971.5 -3.0
18 15.02 С 2 10 км ясно -14.7 -16.6 85 -20 -20 1040.9 972.1
21 15.02 СВ 1 10 км ясно -16.7 -18.9 83 -19 -19 1041.9 972.5
00 16.02 С 1 10 км ясно -18.2 -20.8 80 -21 -21 1043.2 973.3
03 16.02 СВ 1 10 км 4/3 600 м
[Sc Ac lent]
-15.7 -17.6 85 -18 -18 1043.3 974.1 -18.8 25
06 16.02 С 2 10 км 3/0
[Cs]
-10.8 -12.8 85 -15 -13 1042.6 974.7
09 16.02 С 3 20 км 8/0
[Ac und]
-4.1 -9.9 64 -9 -8 1041.0 974.8
12 16.02 СЗ 3 20 км 3/0
[Ci fib]
-3.1 -10.7 56 -8 -7 1040.6 974.7
15 16.02 С 2 10 км ясно -7.2 -11.4 72 -11 -11 1042.0 975.0 -2.9
18 16.02 С 1 10 км ясно -12.4 -13.8 89 -15 -15 1043.4 975.0
21 16.02 С 1 10 км ясно -14.4 -16.4 85 -17 -17 1044.0 975.1
00 17.02 СВ 2 10 км ясно -17.5 -19.9 81 -23 -23 1044.9 975.1
03 17.02 С 2 10 км ясно -18.5 -21.1 80 -24 -24 1045.4 975.3 -19.3 25
06 17.02 С 1 20 км ясно -13.1 -15.3 83 -15 -12 1044.1 975.5 -19.5
09 17.02 ЮЗ 1 20 км ясно -2.0 -13.6 41 -3 +2 1040.6 974.9
12 17.02 Ю 2 20 км ясно -2.5 -12.8 45 -6 -5 1040.2 974.4
15 17.02 Ю 1 10 км ясно -8.4 -13.9 64 -11 -11 1041.8 974.5 -1.8
18 17.02 штиль 0 10 км ясно -13.4 -15.4 85 -13 -13 1042.9 974.3
21 17.02 С 1 10 км ясно -16.7 -18.7 84 -19 -19 1043.5 974.0
00 18.02 С 2 10 км ясно -19.3 -21.9 80 -25 -25 1044.1 973.9
03 18.02 СВ 1 10 км ясно -20.8 -23.6 78 -24 -24 1044.1 973.5 -20.8 25
06 18.02 штиль 0 10 км ясно -12.8 -16.0 77 -13 -9 1041.9 973.5 -21.1
09 18.02 ЮЗ 3 20 км ясно -3.6 -13.3 47 -8 -5 1038.8 972.9
12 18.02 ЮЗ 3 20 км ясно -5.0 -15.1 45 -10 -9 1038.4 972.1
15 18.02 ЮВ 1 10 км 3/0
[Ac lent]
-11.0 -15.7 68 -13 -13 1039.0 971.2 -3.5
18 18.02 ЮВ 1 10 км ясно -12.7 -14.7 85 -15 -15 1038.9 970.7
21 18.02 Ю 2 10 км 3/0
[Ac lent]
-13.5 -15.7 83 -18 -18 1038.6 970.2
00 19.02 Ю 2 10 км 8/0
[Ac und]
-12.7 -15.9 77 -17 -17 1037.2 969.1
03 19.02 Ю 1 10 км 9/0
[Ac und]
-14.3 -17.3 78 -17 -17 1036.7 968.3 -14.3 24
06 19.02 ЮВ 2 20 км 6/0
[Ac trans Ci sp]
-12.4 -17.3 67 -17 -15 1035.6 967.7 -14.8
09 19.02 Ю 3 20 км 10/0
[Ac As]
-6.9 -16.1 48 -12 -11 1032.8 966.4
12 19.02 ЮВ 2 20 км 8/0
[Ac und]
-7.9 -17.8 45 -12 -12 1031.4 964.9
15 19.02 ЮВ 2 10 км 10/0
[Ac As]
-12.6 -18.6 61 -17 -17 1032.1 964.4 -6.8

 

Местоположение метеостанции Зилаир (Башкирия, Россия): широта 52.22 долгота 57.40 высота над уровнем моря 521 м.

В архиве по умолчанию представлена погода в Зилаире за последнюю неделю. Архивные данные за месяц целиком и за предыдущие месяцы, начиная с января 2011 года, Вы можете получить, выбрав интересующий диапазон дат из раскрывающегося списка и нажав кнопку "Ввод!".

Внимание! Время в таблицах - всемирное. Для получения местного времени необходимо прибавить поправку, которая в Зилаире равна 5 ч.

Смотрите также архив погоды в соседних городах и на ближайших метеорологических станциях:

Погода в Акъяре (Башкирия, Россия) (66 км)
Погода в Троицком Т (Оренбургская область, Россия) (71 км)
Погода в Кувандыке (Оренбургская область, Россия) (83 км)
Погода в Шульган-Таше (Башкирия, Россия) (95 км)
Погода в Старосубхангулово (Башкирия, Россия) (98 км)
Погода в Энергетике (Оренбургская область, Россия) (110 км)
Погода в Беляевке (Оренбургская область, Россия) (112 км)
Погода в Кизильском (Челябинская область, Россия) (115 км)
Погода в Кумертау (Башкирия, Россия) (125 км)
Погода в Орске (Оренбургская область, Россия) (152 км)

Пояснения к столбцам:

Ветер - указаны скорость ветра в м/с - средняя за 10 мин, порывы в срок и между сроками (в фигурных скобках) и направление, откуда дует ветер: С - северный, СВ - северо-восточный, В - восточный, ЮВ - юго-восточный, Ю - южный, ЮЗ - юго-западный, З - западный, СЗ - северо-западный.
Видимость - горизонтальная дальность видимости в метрах или километрах. При видимости от 1 до 10 км при отсутствии осадков обычно наблюдается дымка, при ухудшении видимости до 1 км и менее - туман. В сухую погоду видимость может ухудшаться дымом, пылью или мглою.
Явления - указаны атмосферные явления, наблюдавшиеся в срок или в последний час перед сроком; фигурными скобками обозначены явления, наблюдавшиеся между сроками (за 1-3 часа до срока); квадратными скобками обозначены град или гололедные отложения с указанием их диаметра в мм.
Облачность - указаны через наклонную черту общая и нижняя облачность в баллах и высота нижней границы облаков в метрах; квадратными скобками обозначены формы облаков: Ci - перистые, Cs - перисто-слоистые, Cc - перисто-кучевые, Ac - высококучевые, As - высокослоистые, Sc - слоисто-кучевые, Ns - слоисто-дождевые, Cu - кучевые, Cb - кучево-дождевые. Подробнее классификацию облаков см. в Атласе облаков (PDF).
T - Температура воздуха - температура, измеренная на высоте 2 м над землей.
Td - Температура точки росы - температура, при понижении до которой содержащийся в воздухе водяной пар достигнет насыщения.
f - Относительная влажность воздуха - влажноcть воздуха, измеренная на высоте 2 м над землей.
Te - Эффективная температура - температура, которую ощущает одетый по сезону человек в тени. Характеристика душности погоды. При расчете учитывается влияние влажности воздуха и скорости ветра на теплоощущения человека.
Tes - Эффективная температура на солнце - температура, которую ощущает человек, с поправкой на солнечный нагрев. Характеристика знойности погоды. Зависит от высоты солнца над горизонтом, облачности и скорости ветра. Ночью, в пасмурную погоду, а также при ветре 12 м/с и более поправка равна нулю.
P - Атмосферное давление - приведенное к уровню моря атмосферное давление.
Po - Атмосферное давление - измеренное на уровне метеостанции атмосферное давление.
Tmin - Минимальная температура - минимум температуры воздуха на высоте 2 м над землей.
Tmax - Максимальная температура - максимум температуры воздуха на высоте 2 м над землей.
R - Количество осадков - Количество выпавших осадков за период времени, мм. При наведении курсора мыши на число - период времени, за который выпало указанное количество осадков.
R24 - Количество осадков - Количество выпавших осадков за 24 часа, мм.
S - Снежный покров - Высота снежного покрова, см. При наведении курсора мыши на число - состояние снежного покрова и степень покрытия местности в баллах.